This is the latest recevied weather packets stored in our database for station/object VK4TW-13. If no packets are shown the sender has not sent any weather packets the latest 10 day(s).
| Time | Temp. | Humidity | Pressure | Rain* | Wind** | Luminosity | Snow |
|---|---|---|---|---|---|---|---|
| 1778045242 | 25° C | 100% | 1013.8 hPa | 1.27 mm | - | - | - |
| 1778045028 | 25.56° C | 100% | 1013.7 hPa | 0 mm | - | - | - |
| 1778044726 | 25.56° C | 100% | 1013.5 hPa | 0 mm | - | - | - |
| 1778044366 | 26.11° C | 100% | 1013.5 hPa | 0 mm | - | - | - |
| 1778043768 | 26.11° C | 100% | 1013.5 hPa | 0 mm | - | - | - |
| 1778043164 | 26.67° C | 100% | 1013.4 hPa | 0 mm | - | - | - |
| 1778042564 | 27.22° C | 100% | 1013.4 hPa | 0 mm | - | - | - |
| 1778041964 | 27.22° C | 100% | 1013.3 hPa | 0 mm | - | - | - |
| 1778041364 | 27.22° C | 100% | 1013.4 hPa | 0 mm | - | - | - |
| 1778040761 | 27.22° C | 100% | 1013.6 hPa | 0 mm | - | - | - |
| 1778040161 | 27.22° C | 100% | 1013.7 hPa | 0 mm | - | - | - |
| 1778039558 | 27.22° C | 100% | 1013.7 hPa | 0 mm | - | - | - |
| 1778038957 | 26.67° C | 100% | 1013.8 hPa | 0 mm | - | - | - |
| 1778038357 | 26.11° C | 100% | 1013.9 hPa | 0 mm | - | - | - |
| 1778037756 | 26.11° C | 100% | 1013.9 hPa | 0 mm | - | - | - |
| 1778037155 | 26.11° C | 100% | 1014.1 hPa | 0 mm | - | - | - |
| 1778036555 | 26.11° C | 100% | 1014.2 hPa | 0 mm | - | - | - |
| 1778035953 | 25.56° C | 100% | 1014.3 hPa | 0 mm | - | - | - |
| 1778035725 | 25.56° C | 100% | 1014.2 hPa | 0 mm | - | - | - |
| 1778035456 | 25.56° C | 100% | 1014.4 hPa | 0 mm | - | - | - |
| 1778034853 | 25° C | 100% | 1014.4 hPa | 0 mm | - | - | - |
| 1778034252 | 25° C | 100% | 1014.6 hPa | 0 mm | - | - | - |
| 1778033655 | 25° C | 100% | 1014.9 hPa | 0 mm | - | - | - |
| 1778033473 | 25.56° C | 100% | 1014.8 hPa | 0 mm | - | - | - |
| 1778033287 | 25.56° C | 100% | 1014.9 hPa | 0 mm | - | - | - |
* Rain since midnight (hover to see other rain measurements)
** Current wind speed in m/s (hover to see current wind gust speed)